星链-6125 (STARLINK-6125 )

导读 | 豆包AI

STARLINK-6125是美国太空探索技术公司(SpaceX)旗下星链(Starlink)低轨互联网星座的成员卫星,于2023年6月23日由猎鹰9号火箭发射入轨。星链星座旨在为全球提供高速低延迟宽带互联网服务,尤其覆盖基础设施匮乏地区。STARLINK-6125采用成熟技术设计,配备霍尔推进器,具备自主避撞能力,寿命结束后会主动离轨坠入大气层烧毁,是星链全球组网过程中发射的卫星之一。

基本信息
目录编号:
57114
目录名称:
STARLINK-6125
国际标识:
2023-090P
轨道中心:
EARTH
卫星名称:
星链-6125
卫星全名:
星链-6125 (STARLINK-6125 )
卫星状态:
在轨 (已飞行1042 天)
发射日期:
2023-06-23 UTC
国别 :
美国 (US)
星等 :
--
轨道信息
数据来源 国际轨道数据
星历时间: 2026-04-30T07:49:21+0800
8小时前
查看轨道信息
半长轴: 6863.69km
偏心率: 0.000117
轨道倾角: 43.002°
近地点辐角 270.579°
升交点赤经 351.385°
平近点角 89.493°
近地点: 484.749km
远地点: 486.357km
周期: 94.318分钟
每日圈数: 15.267443
详细信息
固有亮度:
5
最大亮度:
2.4
卫星平台:
Starlink v1.5
覆盖范围:
全球
运营商:
太空探索技术公司
运营商所在国:
美国
制造商(研发单位):
太空探索技术公司
制造商所在国:
美国
使用方式:
暂无
卫星简介
星链(Starlink)计划是由太空探索技术公司(SpaceX)提出的一个巨型低轨卫星互联网星座项目,计划在2019年至2024年间在太空搭建由约1.2万颗卫星组成的“星链”网络,其中1584颗将部署在地球上空550千米处的近地轨道,并从2020年开始工作。该卫星仍在工作。
2D轨道图
3D轨道图
轨道高度分析图
轨道倾角分析图
轨道综合分析图
查看轨道综合分析图